Regional Weather Roundup
Issued by NWS

Home | Current Version | Previous Version | Graphics & Text | Print | Product List | Glossary On
Versions: 1 2 3 4 5 6 7 8 9 10 11 12 13 14 15 16 17 18 19 20 21 22 23 24 25 26 27 28 29 30 31 32 33 34 35 36 37 38 39 40 41 42 43 44 45 46 47 48 49 50
000
ASUS43 KIND 141859
RWRIN

WEATHER ROUNDUP FOR INDIANA
NATIONAL WEATHER SERVICE INDIANAPOLIS IN
300 PM EDT SUN SEP 14 2014

NOTE: "FAIR" INDICATES FEW OR NO CLOUDS BELOW 12,000 FEET WITH NO
SIGNIFICANT WEATHER AND/OR OBSTRUCTIONS TO VISIBILITY.

* - STATION DOES NOT REPORT WEATHER SUCH AS PRECIPITATION OR FOG.

+ - STATION NOT QUALITY CONTROLLED BY THE NATIONAL WEATHER SERVICE.
    USE DATA WITH CAUTION...ESPECIALLY DEWPOINT AND RELATIVE
    HUMIDITY OBSERVATIONS.

INZ001>003-010>013-019-020-142000-
NORTHWEST INDIANA

CITY           SKY/WX    TMP DP  RH WIND       PRES   REMARKS
GARY /AIRPORT/ MOSUNNY   64  41  42 S8        30.26F
KNOX *+        SUNNY     63  42  46 SW3       30.26F
MONTICELLO +   SUNNY     64  46  52 CALM      30.25F
VALPARAISO     SUNNY     63  43  48 S9        30.26F

$$

LMZ046-743>745-142000-
SOUTHERN LAKE MICHIGAN

STATION/POSITION TIME  TEMP WIND        PRES
                       AIR  DIR/SP/G
                 (UTC) (F)  (DEG/KT/KT) (MB)
MICHIGAN CITY    1800   58  200/ 10/ 16   N/A

$$

INZ004-005-014>016-021>024-142000-
NORTH CENTRAL INDIANA

CITY           SKY/WX    TMP DP  RH WIND       PRES   REMARKS
ELKHART        MOSUNNY   63  39  42 CALM      30.27F
GOSHEN         MOSUNNY   62  42  47 MISG      30.26F
SOUTH BEND     MOSUNNY   63  42  46 MISG      30.26F
WARSAW +       MOSUNNY   61  43  51 NW6       30.26F

$$

INZ006>009-017-018-025>027-142000-
NORTHEAST INDIANA

CITY           SKY/WX    TMP DP  RH WIND       PRES   REMARKS
ANGOLA *+      PTSUNNY   63  46  55 SW8       30.26F
FORT WAYNE     PTSUNNY   63  46  54 S6        30.27F

$$

INZ028-029-035-036-043>045-051>053-142000-
WEST CENTRAL INDIANA

CITY           SKY/WX    TMP DP  RH WIND       PRES   REMARKS
GREENCASTLE +  SUNNY     64  45  48 SE5       30.26F
LAFAYETTE      SUNNY     63  44  50 E5        30.26F
TERRE HAUTE    SUNNY     67  45  45 MISG      30.25F

$$

INZ030>032-037>040-046>048-054>057-064-065-142000-
CENTRAL INDIANA

CITY           SKY/WX    TMP DP  RH WIND       PRES   REMARKS
FRANKFORT +    SUNNY     66  44  44 SE3       30.27F
INDIANAPOLIS   MOSUNNY   66  45  46 S7        30.25F
-EAGLE CREEK   SUNNY     66  43  43 S6        30.25F
KOKOMO *+      MOSUNNY   64  45  48 CALM      30.25F
MT COMFORT *+  SUNNY     66  36  32 S6        30.26F
SHELBYVILLE    SUNNY     69  45  41 S6        30.25F
ZIONSVILLE +   SUNNY     65  45  48 SE3       30.26F

$$

INZ033-034-041-042-049-050-058-059-142000-
EAST CENTRAL INDIANA

CITY           SKY/WX    TMP DP  RH WIND       PRES   REMARKS
MUNCIE         SUNNY     65  44  46 W5        30.25F

$$

INZ060-061-067>069-081>083-085>088-142000-
SOUTHWEST INDIANA

CITY           SKY/WX    TMP DP  RH WIND       PRES   REMARKS
EVANSVILLE     SUNNY     69  47  45 W6        30.25F

$$

INZ062-063-066-070>080-084-089>092-142000-
SOUTH CENTRAL AND SOUTHEAST INDIANA

CITY           SKY/WX    TMP DP  RH WIND       PRES   REMARKS
BLOOMINGTON    SUNNY     66  43  43 CALM      30.25F

$$




USA.gov is the U.S. government's official web portal to all federal, state and local government web resources and services.